WGS F7 (USA 263)

Last updated on Jan. 17, 2021, 6:29 a.m. UTC

1 40746U 15036A   21016.78240519  .00000013  00000-0  00000-0 0  9996
2 40746   0.0114  54.3639 0000044 232.5436 286.1844  1.00272247 20057
UTC
Height (km)
Latitude
Longitude
Inclination
Orbital Period
UTC large
Height (km)
Speed (km/s)
/
Latitude / Longitude
Inclination (degrees)
Orbital Period (minutes)
Azimuth
Elevation
Range (km)
Doppler Factor
iOS Compass Heading
iOS Angle

Next 30 passes for location: Hong Kong

Rise time Rise Azimuth (degrees) Set time Set Azimuth (degrees) Duration Max altitude (degrees)

No matching passes for this satellites